Home   Weather   Gorakhpur   Past weeks

Flag for India Past Weather in Gorakhpur, Uttar Pradesh, India — Yesterday and Last 2 Weeks

Now
55 °F

Haze.


Feels Like: 55 °F
Forecast: 55 / 84 °F
Wind: 3 mph from West

Location: Patna Airport

Current Time: Feb 25, 2017 at 6:28:23 am

Latest Report: Feb 25, 2017 at 5:30 am


Visibility: 2 mi

Pressure: 29.92 "Hg

Humidity: 72%

Dew Point: 46 °F

Location of GorakhpurLocation

Past Weather in Gorakhpur — Graph

°F

Gorakhpur Temperature Yesterday

Maximum temperature yesterday: 81 °F (at 2:30 pm)
Minimum temperature yesterday: 54 °F (at 5:30 am)
Average temperature yesterday: 71 °F

High & Low Weather Summary for the Past Weeks

 TemperatureHumidityPressure
High91 °F (Feb 21, 1:30 pm)100% (Feb 17, 6:30 am)30.18 "Hg (Feb 17, 6:30 am)
Low50 °F (Feb 11, 5:30 am)21% (Feb 23, 3:00 pm)29.62 "Hg (Feb 20, 5:00 pm)
Average73 °F59%29.94 "Hg
* Reported Feb 10 5:30 am — Feb 25 5:30 am, Gorakhpur, Weather by CustomWeather, © 2017

Note: Actual official high and low records may vary slightly from our data, if they occured in-between our weather recording intervals... More about our weather records

Advertising

Gorakhpur Weather History for the Previous 24 Hours

Scroll right to see more
 ConditionsComfort  
Time TempWeatherWind HumidityBarometerVisibility
5:30 am
Sat, Feb 25
55 °FHaze.3 mph72%29.92 "Hg2 mi
9:30 pm
Fri, Feb 24
64 °FHaze.3 mph60%29.95 "Hg2 mi
9:00 pm64 °FHaze.3 mph60%29.95 "Hg2 mi
8:30 pm66 °FHaze.3 mph56%29.95 "Hg2 mi
8:00 pm68 °FHaze.2 mph49%29.95 "Hg2 mi
7:30 pm73 °FHaze.5 mph38%29.92 "Hg2 mi
7:00 pm73 °FHaze.6 mph36%29.92 "Hg2 mi
6:30 pm75 °FHaze.6 mph34%29.89 "Hg2 mi
6:00 pm75 °FHaze.7 mph34%29.89 "Hg3 mi
5:30 pm77 °FHaze.8 mph30%29.89 "Hg3 mi
5:00 pm81 °FHaze.12 mph26%29.89 "Hg3 mi
4:30 pm81 °FClear.9 mph26%29.86 "Hg4 mi
4:00 pm81 °FClear.8 mph24%29.86 "Hg4 mi
3:30 pm81 °FClear.9 mph24%29.86 "Hg4 mi
3:00 pm81 °FClear.10 mph24%29.86 "Hg4 mi
2:30 pm81 °FClear.12 mph24%29.89 "Hg4 mi
2:00 pm79 °FClear.9 mph26%29.89 "Hg4 mi
1:30 pm79 °FClear.12 mph26%29.92 "Hg4 mi
1:01 pm79 °FClear.12 mph26%29.92 "Hg4 mi
12:00 pm79 °FClear.12 mph32%29.95 "Hg4 mi
11:30 am79 °FClear.10 mph32%29.98 "Hg4 mi
10:30 am75 °FHaze.9 mph34%29.98 "Hg3 mi
10:00 am72 °FHaze.12 mph41%30.01 "Hg3 mi
9:30 am68 °FHaze.12 mph40%30.01 "Hg2 mi
9:00 am64 °FHaze.10 mph46%29.98 "Hg2 mi
8:30 am63 °FHaze.9 mph52%29.98 "Hg2 mi
8:00 am59 °FHaze.7 mph59%29.98 "Hg1 mi
7:30 am55 °FHaze.5 mph77%29.92 "Hg1 mi
7:00 am55 °FHaze.5 mph77%29.92 "Hg1 mi
6:30 am54 °FHaze.3 mph82%29.92 "Hg1 mi
Weather by CustomWeather, © 2017

See weather overviewHow to use our weather pages